1513728000.24,52678,6.69,73370.3,-16.81,-43.67,-43.87,0,*6E
1513728001.47,52679,6.69,73368.5,-16.79,-43.35,-43.81,0,*69
1513728002.73,52680,6.69,73368.8,-16.79,-43.55,-43.81,0,*69
1513728003.95,52681,6.63,73366.3,-16.79,-43.41,-43.75,0,*66
1513728005.22,52682,6.69,73370.0,-16.77,-43.29,-43.41,0,*62
1513728006.44,52683,6.69,73366.5,-16.79,-43.15,-43.35,0,*61
1513728007.71,52684,6.69,73368.3,-16.77,-43.09,-43.35,0,*65
1513728008.99,52685,6.63,73366.3,-16.77,-42.95,-43.35,0,*60
1513728010.26,52686,6.63,73364.3,-16.77,-43.29,-43.41,0,*66
1513728011.48,52687,6.63,73364.8,-16.79,-43.35,-43.61,0,*66
1513728012.73,52688,6.63,73368.0,-16.77,-43.41,-43.75,0,*61
1513728013.94,52689,6.63,73368.3,-16.75,-43.35,-43.75,0,*61
1513728015.18,52690,6.63,73364.0,-16.75,-43.55,-43.75,0,*6F
1513728016.43,52691,6.63,73366.0,-16.77,-43.41,-43.75,0,*69
1513728017.65,52692,6.63,73364.8,-16.79,-43.41,-43.75,0,*64
1513728018.88,52693,6.69,73366.0,-16.75,-43.55,-43.87,0,*61
1513728020.15,52694,6.69,73368.3,-16.77,-43.55,-43.75,0,*69
1513728021.37,52695,6.63,73370.5,-16.79,-43.41,-43.75,0,*63
1513728022.66,52696,6.63,73366.8,-16.77,-43.55,-43.81,0,*60
1513728023.93,52697,6.69,73368.5,-16.77,-43.55,-43.61,0,*6F
1513728025.16,52698,6.69,73364.8,-16.79,-43.41,-43.81,0,*65
1513728026.41,52699,6.63,73364.0,-16.77,-43.41,-43.61,0,*64
1513728027.66,52700,6.63,73366.8,-16.77,-43.41,-43.75,0,*60
1513728028.9,52701,6.63,73364.5,-16.77,-43.41,-43.75,0,*61
1513728030.17,52702,6.63,73366.8,-16.75,-43.55,-43.67,0,*66
1513728031.42,52703,6.63,73368.8,-16.75,-43.09,-43.35,0,*69
1513728032.68,52704,6.69,73368.3,-16.77,-43.15,-43.29,0,*6C
1513728033.95,52705,6.63,73368.0,-16.77,-43.29,-43.61,0,*6E
1513728035.2,52706,6.69,73370.3,-16.77,-43.15,-43.41,0,*60
1513728036.44,52707,6.69,73370.8,-16.75,-43.29,-43.35,0,*6F
1513728037.71,52708,6.63,73364.5,-16.75,-43.29,-43.55,0,*66
1513728038.98,52709,6.63,73366.8,-16.73,-43.35,-43.67,0,*6D
1513728040.25,52710,6.69,73370.3,-16.73,-43.35,-43.55,0,*64
1513728041.49,52711,6.63,73370.5,-16.75,-43.35,-43.67,0,*62
1513728042.76,52712,6.63,73366.8,-16.73,-43.29,-43.35,0,*6D
1513728044.05,52713,6.63,73368.8,-16.73,-43.29,-43.67,0,*6B
1513728045.3,52714,6.69,73370.5,-16.75,-43.49,-43.67,0,*6C
1513728046.54,52715,6.69,73368.3,-16.75,-43.35,-43.55,0,*67
1513728047.83,52716,6.63,73370.5,-16.73,-43.29,-43.67,0,*6E
1513728049.1,52717,6.63,73366.3,-16.75,-43.29,-43.55,0,*68
1513728050.37,52718,6.63,73368.5,-16.73,-43.35,-43.67,0,*6D
1513728051.64,52719,6.63,73368.3,-16.73,-43.49,-43.67,0,*67
1513728052.9,52720,6.63,73368.5,-16.73,-43.55,-43.87,0,*6E
1513728054.16,52721,6.69,73370.8,-16.73,-43.21,-43.35,0,*65
1513728055.44,52722,6.69,73368.0,-16.73,-43.09,-43.35,0,*6C
1513728056.73,52723,6.63,73374.8,-16.73,-43.21,-43.67,0,*60
1513728057.99,52724,6.63,73368.5,-16.73,-43.21,-43.35,0,*60
1513728059.28,52725,6.63,73370.5,-16.73,-43.29,-43.55,0,*6F
1513728060.55,52726,6.63,73370.3,-16.73,-43.35,-43.55,0,*61
1513728061.84,52727,6.63,73370.0,-16.73,-43.21,-43.55,0,*65
1513728063.08,52728,6.63,73370.0,-16.69,-43.15,-43.49,0,*6B
1513728064.35,52729,6.63,73368.0,-16.69,-43.01,-43.21,0,*61
1513728065.61,52730,6.69,73372.3,-16.69,-43.21,-43.49,0,*65
1513728066.85,52731,6.63,73368.3,-16.69,-43.15,-43.49,0,*63
1513728068.11,52732,6.69,73368.0,-16.69,-43.29,-43.61,0,*65
1513728069.38,52733,6.63,73364.5,-16.69,-43.21,-43.61,0,*6C
1513728070.6,52734,6.63,73370.3,-16.67,-43.41,-43.61,0,*63
1513728071.86,52735,6.63,73370.0,-16.69,-43.21,-43.61,0,*6A
1513728073.1,52736,6.63,73370.8,-16.67,-43.21,-43.49,0,*6D
1513728074.34,52737,6.69,73370.3,-16.67,-43.29,-43.49,0,*64
1513728075.61,52738,6.63,73370.0,-16.67,-43.29,-43.67,0,*67
1513728076.9,52739,6.63,73370.8,-16.69,-43.29,-43.67,0,*68
1513728078.17,52740,6.69,73370.8,-16.69,-43.41,-43.67,0,*68
1513728079.44,52741,6.63,73368.0,-16.69,-43.41,-43.67,0,*69
1513728080.66,52742,6.63,73368.0,-16.67,-43.49,-43.87,0,*62
1513728081.92,52743,6.63,73364.5,-16.69,-43.67,-43.87,0,*61
1513728083.19,52744,6.63,73368.3,-16.69,-43.49,-43.67,0,*64
1513728084.45,52745,6.63,73364.8,-16.69,-43.21,-43.49,0,*67
1513728085.69,52746,6.63,73368.3,-16.69,-43.61,-43.87,0,*62
1513728086.93,52747,6.69,73370.8,-16.69,-43.49,-43.87,0,*69
1513728088.17,52748,6.69,73368.5,-16.69,-43.61,-43.87,0,*6C
1513728089.41,52749,6.63,73364.8,-16.67,-43.49,-43.67,0,*67
1513728090.68,52750,6.63,73366.5,-16.67,-43.67,-44.01,0,*64
1513728091.92,52751,6.69,73372.3,-16.67,-43.49,-43.81,0,*66
1513728093.18,52752,6.69,73372.0,-16.69,-43.49,-43.81,0,*6B
1513728094.4,52753,6.63,73368.3,-16.67,-43.41,-43.61,0,*62
1513728095.66,52754,6.63,73366.8,-16.69,-43.49,-43.81,0,*6D
1513728096.93,52755,6.69,73370.5,-16.69,-43.61,-44.01,0,*69
1513728098.19,52756,6.69,73370.5,-16.69,-43.67,-43.87,0,*65
1513728099.45,52757,6.69,73372.8,-16.69,-43.41,-43.81,0,*66
1513728100.69,52758,6.63,73370.5,-16.67,-43.49,-43.81,0,*6F
1513728101.92,52759,6.63,73364.3,-16.69,-43.49,-43.87,0,*66
1513728103.16,52760,6.63,73370.0,-16.69,-43.49,-43.87,0,*6C
1513728104.43,52761,6.63,73368.5,-16.69,-43.41,-43.67,0,*6B
1513728105.69,52762,6.69,73374.0,-16.69,-43.41,-43.81,0,*60
1513728106.96,52763,6.69,73374.0,-16.69,-43.29,-43.49,0,*6B
1513728108.22,52764,6.69,73374.8,-16.69,-43.49,-43.81,0,*6E
1513728109.46,52765,6.63,73368.0,-16.69,-43.61,-43.87,0,*63
1513728110.7,52766,6.63,73372.3,-16.67,-43.61,-43.81,0,*68
1513728111.97,52767,6.63,73368.8,-16.69,-43.49,-43.67,0,*65
1513728113.21,52768,6.69,73372.0,-16.67,-43.21,-43.61,0,*6C
1513728114.45,52769,6.63,73368.0,-16.67,-43.49,-43.81,0,*6D
1513728115.69,52770,6.69,73374.0,-16.67,-43.15,-43.29,0,*6E
1513728116.92,52771,6.63,73368.5,-16.69,-43.15,-43.49,0,*67
1513728118.19,52772,6.63,73368.0,-16.67,-43.21,-43.29,0,*6B
1513728119.46,52773,6.63,73366.8,-16.69,-43.49,-43.67,0,*60
1513728120.68,52774,6.63,73364.8,-16.67,-43.41,-43.61,0,*67
1513728121.94,52775,6.69,73368.8,-16.69,-43.49,-43.81,0,*6E
1513728123.18,52776,6.63,73368.8,-16.67,-43.41,-43.67,0,*63
1513728124.46,52777,6.63,73368.8,-16.69,-43.41,-43.67,0,*6C
1513728125.7,52778,6.63,73368.8,-16.67,-43.29,-43.61,0,*65
1513728126.94,52779,6.63,73364.3,-16.67,-43.49,-43.81,0,*6C
1513728128.18,52780,6.63,73364.0,-16.67,-43.49,-43.67,0,*62
1513728129.4,52781,6.63,73370.5,-16.67,-43.49,-43.87,0,*6D
1513728130.63,52782,6.63,73370.8,-16.67,-43.49,-43.81,0,*68
1513728131.85,52783,6.63,73368.5,-16.67,-43.61,-43.87,0,*65
1513728133.09,52784,6.63,73370.3,-16.67,-43.67,-43.87,0,*64
1513728134.33,52785,6.63,73368.3,-16.67,-43.67,-43.87,0,*65
1513728135.57,52786,6.69,73372.3,-16.67,-43.61,-44.01,0,*69
1513728136.86,52787,6.63,73372.3,-16.69,-43.29,-43.67,0,*6D
1513728138.13,52788,6.63,73366.5,-16.69,-43.49,-43.67,0,*64
1513728139.37,52789,6.63,73368.3,-16.67,-43.41,-43.81,0,*6B
1513728140.61,52790,6.69,73370.0,-16.67,-43.61,-43.81,0,*61
1513728141.83,52791,6.63,73368.5,-16.67,-43.61,-43.87,0,*66
1513728143.07,52792,6.63,73370.0,-16.67,-43.21,-43.61,0,*69
1513728144.31,52793,6.63,73370.8,-16.67,-43.29,-43.61,0,*60
1513728145.58,52794,6.63,73370.8,-16.67,-43.29,-43.67,0,*61
1513728146.83,52795,6.69,73374.0,-16.67,-43.41,-43.67,0,*6E
1513728148.04,52796,6.63,73366.5,-16.67,-43.49,-43.87,0,*6B
1513728149.28,52797,6.63,73370.0,-16.67,-43.49,-43.81,0,*6C
1513728150.52,52798,6.63,73370.8,-16.65,-43.41,-43.75,0,*62
1513728151.81,52799,6.63,73372.5,-16.65,-43.21,-43.55,0,*67
1513728153.07,52800,6.63,73370.0,-16.67,-43.21,-43.29,0,*61
1513728154.31,52801,6.63,73368.8,-16.67,-43.29,-43.49,0,*6E
1513728155.55,52802,6.63,73372.8,-16.67,-43.29,-43.61,0,*67
1513728156.79,52803,6.63,73370.3,-16.67,-43.15,-43.29,0,*65
1513728158.0,52804,6.63,73374.5,-16.63,-43.35,-43.61,0,*68
1513728159.24,52805,6.63,73370.8,-16.65,-43.35,-43.75,0,*6A
1513728160.5,52806,6.63,73374.8,-16.65,-43.21,-43.75,0,*6C
1513728161.74,52807,6.69,73372.8,-16.65,-43.41,-43.75,0,*6B
1513728163.0,52808,6.63,73372.0,-16.65,-43.61,-44.01,0,*62
1513728164.26,52809,6.63,73368.8,-16.65,-43.61,-43.81,0,*6C
1513728165.51,52810,6.63,73366.5,-16.65,-43.61,-43.95,0,*61
1513728166.77,52811,6.63,73366.3,-16.65,-43.75,-44.13,0,*6C
1513728168.03,52812,6.63,73364.3,-16.65,-43.81,-43.95,0,*6D
1513728169.29,52813,6.63,73372.3,-16.65,-43.75,-44.01,0,*6D
1513728170.55,52814,6.63,73368.3,-16.63,-43.55,-43.81,0,*61
1513728171.81,52815,6.63,73368.0,-16.65,-43.75,-44.01,0,*6B
1513728173.08,52816,6.63,73368.0,-16.65,-43.55,-43.75,0,*6E
1513728174.34,52817,6.63,73368.8,-16.65,-43.61,-43.81,0,*63
1513728175.58,52818,6.63,73366.8,-16.65,-43.61,-43.95,0,*69
1513728176.83,52819,6.63,73368.0,-16.67,-43.61,-44.01,0,*60
1513728178.06,52820,6.63,73368.3,-16.67,-43.49,-43.81,0,*6F
1513728179.3,52821,6.63,73372.5,-16.67,-43.67,-43.87,0,*64
1513728180.54,52822,6.63,73364.3,-16.67,-43.61,-43.81,0,*67
1513728181.8,52823,6.63,73372.5,-16.65,-43.49,-43.81,0,*6E
1513728183.07,52824,6.63,73370.8,-16.65,-43.61,-44.01,0,*6C
1513728184.33,52825,6.63,73370.0,-16.65,-43.55,-43.95,0,*60
1513728185.59,52826,6.63,73368.0,-16.65,-43.35,-43.55,0,*69
1513728186.84,52827,6.63,73370.3,-16.65,-43.61,-43.95,0,*65
1513728188.1,52828,6.63,73370.5,-16.65,-43.41,-43.81,0,*6D
1513728189.31,52829,6.63,73370.5,-16.67,-43.61,-43.87,0,*6A
1513728190.58,52830,6.63,73368.5,-16.65,-43.61,-43.81,0,*66
1513728191.82,52831,6.63,73368.5,-16.65,-43.61,-43.95,0,*62
1513728193.09,52832,6.63,73364.0,-16.65,-43.61,-44.01,0,*6B
1513728194.33,52833,6.63,73364.3,-16.65,-43.61,-43.75,0,*6E
1513728195.54,52834,6.63,73368.0,-16.67,-43.61,-43.87,0,*66
1513728196.77,52835,6.63,73370.3,-16.67,-43.41,-43.61,0,*6D
1513728198.0,52836,6.63,73364.3,-16.65,-43.35,-43.61,0,*6F
1513728199.22,52837,6.63,73370.8,-16.67,-43.61,-43.87,0,*65
1513728200.46,52838,6.63,73368.5,-16.67,-43.61,-43.81,0,*6C
1513728201.73,52839,6.63,73368.0,-16.67,-43.29,-43.67,0,*69
1513728202.97,52840,6.63,73366.3,-16.67,-43.67,-43.87,0,*63
1513728204.18,52841,6.63,73368.0,-16.67,-43.49,-43.87,0,*6E
1513728205.4,52842,6.63,73368.5,-16.67,-43.49,-43.61,0,*65
1513728206.64,52843,6.63,73370.0,-16.67,-43.61,-43.81,0,*60
1513728207.91,52844,6.63,73368.0,-16.67,-43.67,-44.01,0,*6E
1513728209.14,52845,6.63,73370.3,-16.67,-43.49,-43.81,0,*6C
1513728210.39,52846,6.63,73368.0,-16.67,-43.61,-44.01,0,*6A
1513728211.63,52847,6.63,73368.5,-16.67,-43.49,-43.81,0,*6E
1513728212.84,52848,6.63,73368.0,-16.67,-43.49,-43.87,0,*67
1513728214.06,52849,6.63,73364.3,-16.67,-43.49,-43.61,0,*6E
1513728215.32,52850,6.63,73372.0,-16.65,-43.35,-43.55,0,*68
1513728216.59,52851,6.63,73372.3,-16.65,-43.55,-43.95,0,*63
1513728217.83,52852,6.63,73374.0,-16.65,-43.41,-43.75,0,*6B
1513728219.09,52853,6.69,73372.5,-16.65,-43.61,-43.81,0,*63
1513728220.33,52854,6.63,73368.3,-16.67,-43.61,-44.01,0,*69
1513728221.61,52855,6.63,73366.3,-16.65,-43.55,-43.81,0,*62
1513728222.86,52856,6.63,73368.0,-16.65,-43.61,-43.75,0,*6D
1513728224.1,52857,6.63,73370.0,-16.65,-43.61,-43.95,0,*62
1513728225.38,52858,6.63,73368.8,-16.65,-43.55,-43.81,0,*6F
1513728226.63,52859,6.63,73370.0,-16.67,-43.61,-44.01,0,*64
1513728227.89,52860,6.63,73368.8,-16.65,-43.55,-43.95,0,*61
1513728229.16,52861,6.63,73370.8,-16.65,-43.55,-43.95,0,*60
1513728230.42,52862,6.63,73370.5,-16.65,-43.75,-44.01,0,*6B
1513728231.66,52863,6.63,73370.8,-16.67,-43.81,-44.07,0,*65
1513728232.92,52864,6.63,73374.3,-16.67,-43.67,-44.01,0,*6C
1513728234.16,52865,6.63,73372.0,-16.67,-43.67,-43.87,0,*64
1513728235.4,52866,6.63,73372.8,-16.67,-43.49,-43.67,0,*65
1513728236.64,52867,6.63,73376.0,-16.67,-43.61,-43.81,0,*66
1513728237.86,52868,6.63,73374.3,-16.67,-43.61,-43.87,0,*6F
1513728239.1,52869,6.63,73368.8,-16.65,-43.35,-43.61,0,*65
1513728240.35,52870,6.63,73366.5,-16.67,-43.41,-43.67,0,*6A
1513728241.59,52871,6.63,73374.3,-16.65,-43.41,-43.75,0,*6A
1513728242.83,52872,6.63,73372.3,-16.65,-43.41,-43.75,0,*69
1513728244.09,52873,6.63,73368.0,-16.65,-43.41,-43.55,0,*6A
1513728245.35,52874,6.63,73372.8,-16.65,-43.21,-43.41,0,*6E
1513728246.64,52875,6.63,73368.8,-16.65,-43.21,-43.55,0,*6A
1513728247.9,52876,6.63,73374.3,-16.65,-43.21,-43.61,0,*6E
1513728249.14,52877,6.63,73370.5,-16.65,-43.75,-43.95,0,*65
1513728250.4,52878,6.63,73374.3,-16.65,-43.55,-43.75,0,*66
1513728251.67,52879,6.63,73370.5,-16.65,-43.61,-43.81,0,*6B
1513728252.93,52880,6.63,73376.3,-16.65,-43.61,-44.01,0,*62
1513728254.2,52881,6.63,73374.0,-16.65,-43.61,-44.01,0,*63
1513728255.44,52882,6.63,73372.3,-16.65,-43.75,-43.95,0,*6F
1513728256.7,52883,6.63,73370.5,-16.65,-43.61,-44.01,0,*61
1513728257.94,52884,6.63,73374.8,-16.65,-43.41,-43.75,0,*60
1513728259.18,52885,6.63,73374.5,-16.65,-43.41,-43.75,0,*61
1513728260.42,52886,6.63,73372.0,-16.65,-43.41,-43.75,0,*62
1513728261.66,52887,6.63,73374.8,-16.65,-43.41,-43.75,0,*63
1513728262.9,52888,6.63,73376.0,-16.65,-43.41,-43.61,0,*69
1513728264.14,52889,6.63,73374.0,-16.65,-43.35,-43.61,0,*6B
1513728265.4,52890,6.63,73374.0,-16.65,-43.55,-43.75,0,*60
1513728266.64,52891,6.63,73370.0,-16.63,-43.09,-43.41,0,*69
1513728267.86,52892,6.63,73372.3,-16.63,-43.35,-43.61,0,*67
1513728269.14,52893,6.63,73374.0,-16.65,-43.55,-43.81,0,*68
1513728270.38,52894,6.63,73372.5,-16.65,-43.41,-43.75,0,*61
1513728271.64,52895,6.63,73378.3,-16.65,-43.41,-43.81,0,*6B
1513728272.85,52896,6.63,73374.3,-16.63,-43.75,-43.95,0,*6C
1513728274.1,52897,6.63,73366.5,-16.65,-43.61,-43.95,0,*6E
1513728275.34,52898,6.63,73370.8,-16.65,-43.41,-43.61,0,*68
1513728276.6,52899,6.63,73370.3,-16.65,-43.21,-43.41,0,*6D
1513728277.85,52900,6.63,73370.8,-16.65,-43.61,-43.95,0,*61
1513728279.13,52901,6.63,73370.3,-16.65,-43.55,-43.81,0,*62
1513728280.39,52902,6.63,73364.3,-16.65,-43.55,-43.75,0,*6A
1513728281.67,52903,6.63,73368.3,-16.65,-43.55,-43.81,0,*60
1513728282.93,52904,6.63,73368.8,-16.63,-43.55,-43.81,0,*61
1513728284.17,52905,6.63,73368.0,-16.63,-43.55,-43.75,0,*6B
1513728285.41,52906,6.63,73368.8,-16.65,-43.61,-43.95,0,*67
1513728286.68,52907,6.63,73370.0,-16.65,-43.55,-43.95,0,*61
1513728287.92,52908,6.63,73374.5,-16.65,-43.75,-43.95,0,*6C
1513728289.16,52909,6.63,73372.3,-16.65,-43.41,-43.61,0,*61
1513728290.4,52910,6.63,73374.5,-16.65,-43.35,-43.61,0,*6A
1513728291.63,52911,6.63,73370.3,-16.63,-43.55,-43.75,0,*6E
1513728292.89,52912,6.63,73374.8,-16.65,-43.41,-43.81,0,*65
1513728294.11,52913,6.63,73372.5,-16.63,-43.41,-43.75,0,*69
1513728295.35,52914,6.63,73374.8,-16.65,-43.15,-43.41,0,*6E
1513728296.59,52915,6.63,73372.8,-16.63,-43.09,-43.41,0,*64
1513728297.86,52916,6.63,73370.5,-16.65,-43.21,-43.41,0,*6B
1513728299.07,52917,6.63,73372.0,-16.63,-43.15,-43.41,0,*6B
1513728300.36,52918,6.63,73372.3,-16.65,-42.95,-43.21,0,*6D
1513728301.6,52919,6.63,73370.5,-16.63,-43.21,-43.41,0,*62
1513728302.82,52920,6.63,73368.5,-16.63,-43.41,-43.75,0,*69
1513728304.03,52921,6.63,73374.8,-16.63,-43.15,-43.41,0,*6E
1513728305.24,52922,6.63,73370.0,-16.63,-43.35,-43.75,0,*68
1513728306.48,52923,6.63,73372.3,-16.63,-43.41,-43.81,0,*61
1513728307.69,52924,6.63,73374.0,-16.63,-43.35,-43.75,0,*6E
1513728308.93,52925,6.63,73372.3,-16.63,-43.61,-43.81,0,*65
1513728310.16,52926,6.63,73370.8,-16.63,-43.55,-43.75,0,*6A
1513728311.38,52927,6.63,73374.3,-16.63,-43.41,-43.61,0,*6B
1513728312.62,52928,6.63,73374.0,-16.63,-43.55,-43.75,0,*64
1513728313.86,52929,6.63,73372.3,-16.63,-43.35,-43.55,0,*61
1513728315.07,52930,6.63,73372.8,-16.63,-43.35,-43.61,0,*6E
1513728316.29,52931,6.63,73374.3,-16.63,-43.41,-43.61,0,*6C
1513728317.53,52932,6.63,73370.3,-16.63,-43.41,-43.81,0,*61
1513728318.77,52933,6.63,73370.0,-16.59,-43.55,-43.75,0,*67
1513728320.03,52934,6.63,73372.5,-16.61,-43.55,-43.75,0,*6B
1513728321.27,52935,6.63,73372.8,-16.59,-43.67,-43.87,0,*6D
1513728322.49,52936,6.63,73370.0,-16.63,-43.75,-43.95,0,*67
1513728323.72,52937,6.63,73372.5,-16.63,-43.61,-43.81,0,*66
1513728324.94,52938,6.63,73372.3,-16.63,-43.41,-43.75,0,*60
1513728326.18,52939,6.63,73374.0,-16.63,-43.61,-43.81,0,*68
1513728327.41,52940,6.63,73370.5,-16.61,-43.49,-43.87,0,*68
1513728328.68,52941,6.63,73368.5,-16.61,-43.49,-43.67,0,*67
1513728329.92,52942,6.63,73370.5,-16.63,-43.55,-43.75,0,*68
1513728331.18,52943,6.63,73368.3,-16.61,-43.55,-43.75,0,*6B
1513728332.44,52944,6.63,73372.3,-16.61,-43.67,-43.87,0,*60
1513728333.66,52945,6.63,73374.5,-16.63,-43.35,-43.61,0,*6C
1513728334.87,52946,6.63,73374.5,-16.63,-43.15,-43.41,0,*6F
1513728336.11,52947,6.63,73372.0,-16.63,-43.61,-43.81,0,*61
1513728337.38,52948,6.63,73372.5,-16.61,-43.49,-43.67,0,*6E
1513728338.65,52949,6.63,73370.0,-16.61,-43.35,-43.67,0,*64
1513728339.9,52950,6.63,73370.3,-16.63,-43.55,-43.81,0,*60
1513728341.17,52951,6.63,73370.5,-16.61,-43.67,-43.75,0,*69
1513728342.43,52952,6.63,73372.3,-16.61,-43.67,-43.87,0,*67
1513728343.67,52953,6.63,73372.3,-16.61,-43.49,-43.75,0,*67
1513728344.91,52954,6.63,73368.8,-16.59,-43.67,-44.07,0,*65
1513728346.2,52955,6.63,73368.3,-16.61,-43.55,-43.67,0,*6F
1513728347.44,52956,6.63,73372.5,-16.63,-43.61,-43.81,0,*61
1513728348.66,52957,6.63,73370.8,-16.63,-43.75,-43.95,0,*60
1513728349.9,52958,6.63,73370.5,-16.63,-43.75,-44.01,0,*65
1513728351.14,52959,6.63,73370.3,-16.63,-43.55,-43.95,0,*6C
1513728352.38,52960,6.63,73374.3,-16.63,-43.75,-44.13,0,*6D
1513728353.61,52961,6.63,73372.8,-16.63,-43.61,-43.81,0,*65
1513728354.91,52962,6.63,73374.5,-16.61,-43.29,-43.67,0,*60
1513728356.16,52963,6.63,73372.3,-16.63,-43.55,-43.81,0,*60
1513728357.4,52964,6.63,73372.8,-16.63,-43.55,-43.95,0,*62
1513728358.67,52965,6.63,73372.0,-16.61,-43.55,-43.95,0,*61
1513728359.93,52966,6.63,73368.8,-16.61,-43.55,-43.87,0,*61
1513728361.17,52967,6.63,73370.0,-16.63,-43.55,-43.75,0,*6F
1513728362.41,52968,6.63,73372.5,-16.63,-43.55,-43.75,0,*60
1513728363.65,52969,6.63,73372.8,-16.61,-43.49,-43.75,0,*6E
1513728364.88,52970,6.63,73374.8,-16.61,-43.49,-43.87,0,*6B
1513728366.12,52971,6.63,73374.5,-16.61,-43.49,-43.87,0,*6A
1513728367.38,52972,6.63,73376.8,-16.61,-43.55,-43.87,0,*64
1513728368.62,52973,6.63,73372.5,-16.63,-43.61,-44.01,0,*69
1513728369.88,52974,6.63,73372.8,-16.63,-43.81,-44.01,0,*60
1513728371.12,52975,6.63,73374.5,-16.63,-43.75,-44.01,0,*6A
1513728372.38,52976,6.63,73376.0,-16.65,-43.55,-43.75,0,*69
1513728373.62,52977,6.63,73374.8,-16.65,-43.61,-43.95,0,*61
1513728374.88,52978,6.63,73376.0,-16.63,-43.55,-43.81,0,*6A
1513728376.15,52979,6.63,73378.0,-16.61,-43.55,-43.95,0,*6C
1513728377.39,52980,6.63,73372.3,-16.61,-43.75,-44.07,0,*64
1513728378.6,52981,6.63,73370.8,-16.63,-43.41,-43.75,0,*62
1513728379.84,52982,6.63,73372.3,-16.63,-43.35,-43.55,0,*60
1513728381.06,52983,6.63,73372.5,-16.63,-43.41,-43.75,0,*60
1513728382.29,52984,6.63,73378.8,-16.63,-43.41,-43.81,0,*6C
1513728383.51,52985,6.63,73374.3,-16.63,-43.41,-43.61,0,*63
1513728384.73,52986,6.63,73372.0,-16.63,-43.61,-43.95,0,*69
1513728385.97,52987,6.63,73370.5,-16.63,-43.61,-43.81,0,*6D
1513728387.24,52988,6.63,73370.3,-16.61,-43.55,-43.95,0,*62
1513728388.47,52989,6.63,73368.5,-16.61,-43.49,-43.87,0,*6D
1513728389.74,52990,6.63,73370.5,-16.61,-43.55,-43.75,0,*65
1513728390.96,52991,6.63,73368.8,-16.63,-43.61,-43.95,0,*6F
1513728392.2,52992,6.63,73370.3,-16.63,-43.61,-44.01,0,*66
1513728393.44,52993,6.63,73370.8,-16.63,-43.55,-43.75,0,*64
1513728394.66,52994,6.63,73372.8,-16.63,-43.61,-43.95,0,*6A
1513728395.92,52995,6.63,73372.8,-16.63,-43.81,-44.01,0,*6F
1513728397.16,52996,6.63,73372.0,-16.65,-43.41,-43.75,0,*62
1513728398.37,52997,6.63,73370.3,-16.63,-43.41,-43.61,0,*60
1513728399.61,52998,6.63,73374.8,-16.63,-43.61,-43.81,0,*63
1513728400.88,52999,6.63,73372.8,-16.65,-43.55,-43.95,0,*66
1513728402.12,53000,6.63,73372.5,-16.63,-43.61,-44.01,0,*65
1513728403.36,53001,6.63,73374.3,-16.65,-43.61,-43.95,0,*68
1513728404.58,53002,6.63,73370.8,-16.63,-43.41,-43.75,0,*61
1513728405.82,53003,6.63,73372.0,-16.63,-43.55,-43.95,0,*6B
1513728407.06,53004,6.63,73372.8,-16.65,-43.75,-43.95,0,*68
1513728408.3,53005,6.63,73370.8,-16.63,-43.55,-43.75,0,*63
1513728409.54,53006,6.63,73374.8,-16.63,-43.61,-44.01,0,*63
1513728410.78,53007,6.63,73372.0,-16.63,-43.61,-43.81,0,*6D
1513728412.01,53008,6.63,73372.0,-16.63,-43.61,-43.81,0,*62
1513728413.27,53009,6.63,73372.0,-16.65,-43.61,-43.81,0,*65
1513728414.54,53010,6.63,73368.0,-16.61,-43.35,-43.67,0,*60
1513728415.76,53011,6.63,73374.8,-16.63,-43.41,-43.75,0,*63
1513728417.02,53012,6.63,73374.8,-16.65,-43.35,-43.55,0,*67
1513728418.23,53013,6.63,73372.8,-16.63,-43.41,-43.75,0,*61
1513728419.47,53014,6.63,73374.8,-16.63,-43.55,-43.95,0,*6D
1513728420.69,53015,6.63,73374.5,-16.63,-43.41,-43.95,0,*69
1513728421.93,53016,6.63,73374.5,-16.63,-43.55,-43.95,0,*6F
1513728423.14,53017,6.63,73372.8,-16.63,-43.35,-43.75,0,*66
1513728424.41,53018,6.63,73368.8,-16.65,-43.15,-43.55,0,*6F
1513728425.67,53019,6.63,73368.3,-16.61,-43.15,-43.55,0,*6A
1513728426.94,53020,6.63,73370.8,-16.61,-43.35,-43.67,0,*63
1513728428.18,53021,6.63,73372.0,-16.61,-43.49,-43.75,0,*6A
1513728429.39,53022,6.63,73372.5,-16.63,-43.41,-43.61,0,*66
1513728430.63,53023,6.63,73370.3,-16.63,-43.41,-43.81,0,*69
1513728431.87,53024,6.63,73374.8,-16.63,-43.55,-43.75,0,*60
1513728433.11,53025,6.63,73374.5,-16.63,-43.61,-44.01,0,*62
1513728434.35,53026,6.63,73374.0,-16.63,-43.75,-44.13,0,*67
1513728435.59,53027,6.63,73368.8,-16.61,-43.49,-43.75,0,*6C
1513728436.83,53028,6.63,73372.3,-16.61,-43.49,-43.75,0,*63
1513728438.07,53029,6.63,73374.5,-16.63,-43.55,-43.61,0,*68
1513728439.28,53030,6.63,73372.8,-16.63,-43.35,-43.41,0,*64
1513728440.55,53031,6.63,73368.0,-16.61,-43.35,-43.55,0,*62
1513728441.81,53032,6.63,73370.5,-16.61,-43.29,-43.49,0,*61
1513728443.06,53033,6.63,73368.8,-16.61,-43.49,-43.75,0,*69
1513728444.32,53034,6.63,73368.8,-16.61,-43.35,-43.67,0,*66
1513728445.59,53035,6.63,73370.5,-16.61,-43.55,-43.95,0,*6C
1513728446.83,53036,6.63,73370.3,-16.63,-43.55,-43.75,0,*63
1513728448.07,53037,6.63,73372.3,-16.63,-43.41,-43.55,0,*65
1513728449.31,53038,6.63,73368.3,-16.61,-43.15,-43.49,0,*64
1513728450.57,53039,6.63,73372.0,-16.61,-43.29,-43.49,0,*6A
1513728451.81,53040,6.63,73372.5,-16.61,-43.15,-43.49,0,*6B
1513728453.05,53041,6.63,73372.5,-16.59,-43.35,-43.67,0,*6F
1513728454.32,53042,6.63,73368.8,-16.59,-43.29,-43.67,0,*61
1513728455.59,53043,6.63,73372.3,-16.61,-43.09,-43.49,0,*65
1513728456.86,53044,6.63,73374.3,-16.61,-43.09,-43.15,0,*6B
1513728458.13,53045,6.63,73374.3,-16.61,-43.09,-43.35,0,*68
1513728459.4,53046,6.63,73372.8,-16.59,-43.29,-43.55,0,*64
1513728460.66,53047,6.63,73374.5,-16.61,-43.55,-43.75,0,*67
1513728461.91,53048,6.63,73372.0,-16.59,-43.09,-43.15,0,*6C
1513728463.14,53049,6.63,73372.8,-16.61,-43.35,-43.75,0,*6F
1513728464.38,53050,6.63,73372.5,-16.59,-43.35,-43.67,0,*6F
1513728465.65,53051,6.63,73372.5,-16.59,-43.29,-43.55,0,*62
1513728466.87,53052,6.63,73374.0,-16.59,-43.35,-43.75,0,*6E
1513728468.13,53053,6.63,73378.8,-16.61,-43.55,-43.87,0,*6F
1513728469.34,53054,6.63,73374.5,-16.59,-43.49,-43.75,0,*63
1513728470.61,53055,6.63,73370.3,-16.61,-43.67,-43.95,0,*6B
1513728471.83,53056,6.63,73374.0,-16.59,-43.15,-43.49,0,*67
1513728473.07,53057,6.63,73372.3,-16.59,-43.09,-43.49,0,*6B
1513728474.34,53058,6.63,73370.8,-16.59,-43.29,-43.67,0,*6A
1513728475.61,53059,6.63,73372.0,-16.61,-43.67,-43.95,0,*67
1513728476.87,53060,6.63,73372.8,-16.61,-43.67,-43.87,0,*6E
1513728478.08,53061,6.63,73372.8,-16.59,-43.49,-43.87,0,*68
1513728479.32,53062,6.63,73370.8,-16.59,-43.55,-43.95,0,*65
1513728480.57,53063,6.63,73372.5,-16.59,-43.67,-44.07,0,*69
1513728481.81,53064,6.63,73372.3,-16.57,-43.61,-44.07,0,*66
1513728483.07,53065,6.63,73370.0,-16.61,-43.67,-43.87,0,*6B
1513728484.34,53066,6.63,73372.8,-16.61,-43.67,-43.95,0,*6B
1513728485.58,53067,6.63,73370.5,-16.59,-43.67,-44.07,0,*6D
1513728486.84,53068,6.63,73374.0,-16.59,-43.67,-44.13,0,*67
1513728488.08,53069,6.63,73372.0,-16.59,-43.67,-43.87,0,*6C
1513728489.34,53070,6.63,73372.3,-16.61,-43.67,-43.95,0,*6C
1513728490.56,53071,6.63,73368.8,-16.59,-43.75,-44.07,0,*69
1513728491.8,53072,6.63,73372.3,-16.59,-43.67,-43.95,0,*65
1513728493.04,53073,6.63,73372.8,-16.61,-43.49,-43.87,0,*60
1513728494.29,53074,6.63,73370.8,-16.59,-43.55,-43.95,0,*62
1513728495.52,53075,6.63,73368.8,-16.59,-43.67,-43.87,0,*61
1513728496.76,53076,6.63,73374.0,-16.59,-43.67,-44.07,0,*6D
1513728498.03,53077,6.63,73374.5,-16.61,-43.67,-44.07,0,*67